QPF
0.00 0.00 0.00 0.00 0.00 0.00 0.00 0.00 0.00 0.00 0.00 0.00 0.00 0.00 0.00 0.00 0.00 0.00 0.00 0.00 0.00 0.00 0.00 0.00 0.00 0.00 0.00 0.00 0.00 0.00 0.00 0.00 0.00 0.00 0.00 0.00 0.00 0.00 0.00 0.00 0.00 0.00 0.00 0.00 0.00 0.00 0.00 0.00 0.00 0.00 0.00 0.00 0.00 0.00
0.00 0.00 0.00 0.00 0.00 0.00 0.00 0.00 0.00 0.00 0.00 0.00 0.00 0.00 0.00 0.00 0.00 0.00 0.00 0.00 0.00 0.00 0.00 0.00 0.00 0.00 0.00 0.00 0.00 0.00 0.00 0.00 0.00 0.00 0.00 0.00 0.00 0.00 0.00 0.00 0.00 0.00 0.00 0.00 0.00 0.00 0.00 0.00 0.00 0.00 0.00 0.00 0.00 0.00
0.00 0.00 0.00 0.00 0.00 0.00 0.00 0.00 0.00 0.00 0.00 0.00 0.00 0.00 0.00 0.00 0.00 0.00 0.00 0.00 0.00 0.00 0.00 0.00 0.00 0.00 0.00 0.00 0.00 0.00 0.00 0.00 0.00 0.00 0.00 0.00 0.00 0.00 0.00 0.00 0.00 0.00 0.00 0.00 0.00 0.00 0.00 0.00 0.00 0.00 0.00 0.00 0.00 0.00
0.00 0.00 0.00 0.00 0.00 0.00 0.00 0.00 0.00 0.00 0.00 0.00 0.00 0.00 0.00 0.00 0.00 0.00 0.00 0.00 0.00 0.00 0.00 0.00 0.00 0.00 0.00 0.00 0.00 0.00 0.00 0.00 0.00 0.00 0.00 0.00 0.00 0.00 0.00 0.00 0.00 0.00 0.00 0.00 0.00 0.00 0.00 0.00 0.00 0.00 0.00 0.00 0.00 0.00
0.00 0.00 0.00 0.00 0.00 0.00 0.00 0.00 0.00 0.00 0.00 0.00 0.00 0.00 0.00 0.00 0.00 0.00 0.00 0.00 0.00 0.00 0.00 0.00 0.00 0.00 0.00 0.00 0.00 0.00 0.00 0.00 0.00 0.00 0.00 0.00 0.00 0.00 0.00 0.00 0.00 0.00 0.00 0.00 0.00 0.00 0.00 0.00 0.00 0.00 0.00 0.00 0.00 0.00
0.00 0.00 0.00 0.00 0.00 0.00 0.00 0.00 0.00 0.00 0.00 0.00 0.00 0.00 0.00 0.00 0.00 0.00 0.00 0.00 0.00 0.00 0.00 0.00 0.00 0.00 0.00 0.00 0.00 0.00 0.00 0.00 0.00 0.00 0.00 0.00 0.00 0.00 0.00 0.00 0.00 0.00 0.00 0.00 0.00 0.00 0.00 0.00 0.00 0.00 0.00 0.00 0.00 0.00
0.00 0.00 0.00 0.00 0.00 0.00 0.00 0.00 0.00 0.00 0.00 0.00 0.00 0.00 0.00 0.00 0.00 0.00 0.00 0.00 0.00 0.00 0.00 0.00 0.00 0.00 0.00 0.00 0.00 0.00 0.00 0.00 0.00 0.00 0.00 0.00 0.00 0.00 0.00 0.00 0.00 0.00 0.00 0.00 0.00 0.00 0.00 0.00 0.00 0.00 0.00 0.00 0.00 0.00
0.00 0.00 0.00 0.00 0.00 0.00 0.00 0.00 0.00 0.00 0.00 0.00 0.00 0.00 0.00 0.00 0.00 0.00 0.00 0.00 0.00 0.00 0.00 0.00 0.00 0.00 0.00 0.00 0.00 0.00 0.00 0.00 0.00 0.00 0.00 0.00 0.00 0.00 0.00 0.00 0.00 0.00 0.00 0.00 0.00 0.00 0.00 0.00 0.00 0.00 0.00 0.00 0.00 0.00
0.00 0.00 0.00 0.00 0.00 0.00 0.00 0.00 0.00 0.00 0.00 0.00 0.00 0.00 0.00 0.00 0.00 0.00 0.00 0.00 0.00 0.00 0.00 0.00 0.00 0.00 0.00 0.00 0.00 0.00 0.00 0.00 0.00 0.00 0.00 0.00 0.00 0.00 0.00 0.00 0.00 0.00 0.00 0.00 0.00 0.00 0.00 0.00 0.00 0.00 0.00 0.00 0.00 0.01
0.00 0.00 0.00 0.00 0.00 0.00 0.00 0.00 0.00 0.00 0.00 0.00 0.00 0.00 0.00 0.00 0.00 0.00 0.00 0.00 0.00 0.00 0.00 0.00 0.00 0.00 0.00 0.00 0.00 0.00 0.00 0.00 0.00 0.00 0.00 0.00 0.01 0.00 0.00 0.00 0.00 0.00 0.00 0.00 0.00 0.00 0.00 0.00 0.00 0.00 0.00 0.00 0.00 0.01
0.00 0.00 0.00 0.00 0.00 0.00 0.00 0.00 0.00 0.00 0.00 0.00 0.00 0.00 0.00 0.00 0.00 0.00 0.00 0.00 0.00 0.02 0.01 0.00 0.00 0.00 0.00 0.00 0.00 0.00 0.00 0.00 0.00 0.00 0.00 0.01 0.02 0.00 0.00 0.00 0.00 0.00 0.00 0.00 0.00 0.02 0.00 0.00 0.00 0.00 0.00 0.00 0.00 0.00
0.00 0.00 0.00 0.00 0.00 0.00 0.00 0.00 0.00 0.00 0.00 0.00 0.00 0.00 0.00 0.00 0.00 0.00 0.01 0.02 0.03 0.04 0.03 0.02 0.00 0.00 0.00 0.00 0.00 0.00 0.00 0.00 0.00 0.00 0.02 0.01 0.02 0.00 0.00 0.00 0.00 0.00 0.00 0.00 0.01 0.05 0.01 0.00 0.00 0.00 0.00 0.00 0.00 0.00
0.00 0.00 0.00 0.00 0.00 0.00 0.00 0.00 0.00 0.00 0.00 0.00 0.00 0.00 0.00 0.00 0.00 0.00 0.02 0.03 0.05 0.07 0.05 0.02 0.01 0.00 0.00 0.00 0.00 0.00 0.00 0.00 0.00 0.00 0.01 0.03 0.01 0.00 0.00 0.00 0.00 0.00 0.00 0.00 0.04 0.09 0.03 0.00 0.00 0.00 0.00 0.00 0.00 0.00
0.00 0.00 0.00 0.00 0.00 0.00 0.00 0.00 0.00 0.00 0.00 0.00 0.00 0.00 0.00 0.00 0.00 0.00 0.00 0.00 0.02 0.01 0.04 0.05 0.06 0.00 0.00 0.01 0.01 0.00 0.00 0.00 0.01 0.01 0.05 0.03 0.02 0.01 0.00 0.00 0.00 0.00 0.00 0.00 0.02 0.06 0.03 0.00 0.00 0.00 0.00 0.00 0.00 0.00
0.00 0.00 0.00 0.00 0.00 0.00 0.00 0.00 0.00 0.00 0.00 0.00 0.00 0.00 0.00 0.00 0.00 0.00 0.00 0.00 0.00 0.00 0.00 0.02 0.01 0.00 0.00 0.00 0.01 0.01 0.00 0.00 0.01 0.04 0.04 0.02 0.04 0.03 0.01 0.00 0.00 0.00 0.00 0.00 0.00 0.04 0.05 0.03 0.01 0.00 0.00 0.00 0.00 0.00
0.00 0.00 0.00 0.00 0.00 0.00 0.00 0.00 0.00 0.00 0.00 0.00 0.00 0.00 0.00 0.00 0.01 0.00 0.00 0.00 0.00 0.00 0.00 0.00 0.01 0.01 0.00 0.00 0.01 0.01 0.01 0.02 0.06 0.05 0.00 0.00 0.01 0.02 0.01 0.00 0.00 0.00 0.00 0.00 0.03 0.04 0.04 0.09 0.02 0.01 0.00 0.00 0.00 0.00
0.00 0.00 0.00 0.00 0.00 0.00 0.00 0.00 0.00 0.00 0.00 0.00 0.00 0.00 0.00 0.00 0.00 0.00 0.00 0.00 0.00 0.00 0.03 0.02 0.02 0.01 0.00 0.01 0.02 0.04 0.04 0.04 0.01 0.00 0.00 0.00 0.01 0.01 0.01 0.00 0.00 0.00 0.00 0.02 0.07 0.08 0.03 0.02 0.03 0.01 0.02 0.00 0.00 0.00
0.00 0.00 0.00 0.00 0.00 0.00 0.00 0.00 0.00 0.00 0.00 0.00 0.00 0.00 0.00 0.00 0.00 0.00 0.00 0.00 0.00 0.04 0.06 0.03 0.01 0.01 0.02 0.01 0.01 0.01 0.00 0.00 0.00 0.00 0.00 0.00 0.00 0.01 0.01 0.00 0.00 0.00 0.02 0.08 0.03 0.01 0.02 0.02 0.02 0.05 0.09 0.02 0.00 0.00
0.00 0.00 0.00 0.00 0.00 0.00 0.00 0.00 0.00 0.00 0.00 0.00 0.00 0.00 0.00 0.00 0.00 0.00 0.00 0.00 0.00 0.00 0.05 0.06 0.06 0.04 0.04 0.00 0.00 0.00 0.00 0.00 0.00 0.00 0.00 0.00 0.00 0.01 0.03 0.04 0.03 0.05 0.07 0.05 0.01 0.01 0.07 0.08 0.08 0.11 0.07 0.02 0.00 0.00
0.00 0.00 0.00 0.00 0.00 0.00 0.00 0.00 0.00 0.00 0.00 0.00 0.00 0.00 0.00 0.00 0.00 0.00 0.00 0.00 0.00 0.04 0.08 0.06 0.06 0.05 0.02 0.00 0.00 0.01 0.00 0.00 0.00 0.01 0.03 0.03 0.03 0.05 0.08 0.04 0.06 0.04 0.02 0.02 0.01 0.01 0.02 0.05 0.08 0.07 0.04 0.01 0.00 0.00
0.00 0.00 0.00 0.00 0.00 0.00 0.00 0.00 0.00 0.00 0.00 0.00 0.00 0.00 0.00 0.00 0.00 0.00 0.00 0.00 0.02 0.06 0.05 0.03 0.05 0.04 0.03 0.03 0.00 0.00 0.00 0.01 0.01 0.02 0.02 0.01 0.05 0.02 0.02 0.02 0.02 0.05 0.13 0.09 0.05 0.07 0.00 0.02 0.00 0.01 0.00 0.00 0.00 0.00
0.00 0.00 0.00 0.00 0.00 0.00 0.00 0.00 0.00 0.00 0.00 0.00 0.00 0.00 0.00 0.00 0.00 0.00 0.00 0.01 0.04 0.07 0.04 0.10 0.12 0.09 0.04 0.03 0.01 0.00 0.03 0.08 0.08 0.06 0.05 0.01 0.04 0.09 0.04 0.03 0.05 0.09 0.15 0.07 0.02 0.01 0.01 0.00 0.00 0.00 0.00 0.00 0.00 0.00
0.00 0.00 0.00 0.00 0.00 0.00 0.00 0.00 0.00 0.00 0.00 0.00 0.00 0.00 0.00 0.00 0.00 0.00 0.01 0.06 0.10 0.08 0.06 0.06 0.04 0.01 0.03 0.01 0.01 0.00 0.00 0.04 0.09 0.09 0.07 0.06 0.10 0.06 0.11 0.10 0.10 0.05 0.01 0.00 0.00 0.00 0.00 0.00 0.00 0.00 0.00 0.00 0.00 0.00
0.00 0.00 0.00 0.00 0.00 0.00 0.00 0.00 0.00 0.00 0.00 0.00 0.01 0.00 0.00 0.00 0.00 0.00 0.01 0.03 0.07 0.06 0.06 0.05 0.03 0.01 0.03 0.04 0.02 0.02 0.01 0.00 0.03 0.05 0.07 0.08 0.07 0.11 0.12 0.10 0.04 0.00 0.00 0.00 0.02 0.03 0.00 0.00 0.00 0.00 0.00 0.00 0.00 0.00
0.00 0.00 0.00 0.00 0.00 0.00 0.00 0.00 0.00 0.01 0.01 0.01 0.00 0.01 0.00 0.00 0.00 0.00 0.01 0.04 0.07 0.05 0.07 0.09 0.02 0.00 0.02 0.02 0.02 0.00 0.00 0.00 0.00 0.03 0.05 0.04 0.10 0.03 0.03 0.00 0.00 0.00 0.00 0.00 0.00 0.00 0.00 0.00 0.00 0.00 0.00 0.00 0.00 0.00
0.00 0.00 0.00 0.00 0.00 0.00 0.00 0.00 0.01 0.00 0.00 0.00 0.00 0.01 0.00 0.00 0.00 0.01 0.03 0.04 0.08 0.05 0.04 0.09 0.04 0.01 0.03 0.03 0.02 0.01 0.01 0.02 0.02 0.09 0.07 0.06 0.02 0.02 0.05 0.00 0.00 0.00 0.00 0.00 0.00 0.00 0.00 0.00 0.00 0.00 0.00 0.00 0.00 0.00
0.00 0.00 0.00 0.00 0.00 0.00 0.00 0.00 0.00 0.00 0.00 0.00 0.00 0.00 0.00 0.00 0.01 0.03 0.00 0.00 0.01 0.00 0.00 0.00 0.00 0.01 0.06 0.09 0.14 0.14 0.11 0.13 0.12 0.04 0.03 0.05 0.05 0.05 0.05 0.01 0.00 0.00 0.00 0.00 0.00 0.00 0.00 0.00 0.00 0.00 0.00 0.00 0.00 0.00
0.00 0.00 0.00 0.00 0.00 0.00 0.00 0.00 0.00 0.00 0.00 0.00 0.00 0.00 0.00 0.00 0.03 0.07 0.01 0.00 0.00 0.00 0.00 0.00 0.00 0.00 0.00 0.03 0.08 0.11 0.10 0.04 0.05 0.06 0.04 0.03 0.00 0.00 0.00 0.00 0.00 0.00 0.00 0.00 0.00 0.00 0.00 0.00 0.00 0.00 0.00 0.00 0.00 0.00
0.00 0.00 0.00 0.00 0.00 0.00 0.00 0.00 0.00 0.00 0.00 0.00 0.01 0.00 0.00 0.00 0.00 0.01 0.00 0.00 0.00 0.00 0.00 0.00 0.00 0.00 0.00 0.00 0.00 0.01 0.02 0.02 0.03 0.00 0.00 0.00 0.00 0.00 0.00 0.00 0.00 0.00 0.00 0.00 0.00 0.00 0.00 0.00 0.00 0.00 0.00 0.00 0.00 0.00
0.00 0.00 0.00 0.00 0.00 0.00 0.00 0.00 0.00 0.00 0.00 0.00 0.00 0.00 0.00 0.00 0.00 0.00 0.00 0.00 0.00 0.00 0.00 0.00 0.00 0.00 0.00 0.00 0.00 0.00 0.00 0.05 0.04 0.00 0.00 0.00 0.00 0.00 0.00 0.00 0.00 0.00 0.00 0.00 0.00 0.00 0.00 0.00 0.00 0.00 0.00 0.00 0.00 0.00
0.00 0.00 0.00 0.00 0.00 0.00 0.00 0.00 0.00 0.00 0.00 0.00 0.00 0.00 0.00 0.00 0.00 0.00 0.00 0.00 0.00 0.00 0.00 0.00 0.00 0.00 0.00 0.00 0.00 0.00 0.00 0.00 0.00 0.00 0.00 0.00 0.00 0.00 0.00 0.00 0.00 0.00 0.00 0.00 0.00 0.00 0.00 0.00 0.00 0.00 0.00 0.00 0.00 0.00
0.00 0.00 0.00 0.00 0.00 0.00 0.00 0.00 0.00 0.00 0.00 0.00 0.00 0.00 0.00 0.00 0.00 0.00 0.00 0.00 0.00 0.00 0.00 0.00 0.00 0.00 0.00 0.00 0.00 0.00 0.00 0.00 0.00 0.00 0.00 0.00 0.00 0.00 0.00 0.00 0.00 0.00 0.00 0.00 0.00 0.00 0.00 0.00 0.00 0.00 0.00 0.00 0.00 0.00
0.00 0.00 0.00 0.00 0.00 0.00 0.02 0.00 0.00 0.00 0.00 0.00 0.00 0.00 0.00 0.00 0.00 0.00 0.00 0.00 0.00 0.00 0.00 0.00 0.00 0.00 0.00 0.00 0.00 0.00 0.00 0.00 0.00 0.00 0.00 0.00 0.00 0.00 0.00 0.00 0.00 0.00 0.00 0.00 0.00 0.00 0.00 0.00 0.00 0.00 0.00 0.00 0.00 0.00
MSLP
1027.10 1026.57 1026.02 1025.44 1024.79 1024.20 1023.63 1023.06 1022.44 1021.81 1021.20 1020.66 1020.14 1019.65 1019.20 1018.79 1018.41 1017.74 1016.07 1016.30 1015.36 1013.17 1011.21 1010.93 1010.47 1009.77 1009.34 1008.79 1007.83 1008.60 1008.57 1008.02 1007.62 1007.03 1006.48 1006.47 1006.74 1007.33 1007.58 1007.99 1008.03 1007.78 1007.62 1007.29 1007.95 1008.19 1008.79 1010.37 1010.33 1010.47 1010.73 1010.91 1011.01 1011.34
1026.78 1026.31 1025.83 1025.29 1024.65 1024.05 1023.45 1022.90 1022.31 1021.70 1021.11 1020.57 1020.12 1019.66 1019.19 1018.83 1018.53 1018.12 1016.01 1016.22 1016.28 1014.85 1012.09 1011.97 1011.29 1011.05 1010.65 1010.18 1009.35 1009.13 1008.67 1008.39 1008.00 1007.35 1007.62 1007.48 1007.57 1008.11 1007.63 1007.88 1009.38 1008.93 1008.94 1008.68 1009.18 1009.00 1010.50 1011.11 1011.26 1011.38 1011.45 1011.55 1011.59 1011.70
1026.50 1026.02 1025.56 1025.06 1024.43 1023.82 1023.27 1022.65 1022.07 1021.51 1020.96 1020.43 1019.93 1019.47 1019.07 1018.74 1018.49 1018.35 1016.81 1016.31 1015.54 1013.94 1011.80 1011.16 1010.30 1010.60 1010.72 1010.53 1010.34 1009.32 1009.19 1009.35 1009.09 1009.28 1008.18 1008.11 1008.23 1008.35 1008.03 1008.27 1009.10 1010.09 1010.45 1009.84 1010.40 1010.41 1010.67 1011.13 1011.32 1011.55 1011.79 1011.76 1011.80 1011.72
1026.25 1025.77 1025.30 1024.74 1024.12 1023.53 1022.92 1022.37 1021.84 1021.26 1020.70 1020.19 1019.68 1019.16 1018.78 1018.47 1018.23 1018.13 1016.85 1016.26 1015.72 1014.30 1012.05 1010.41 1010.48 1010.34 1010.71 1010.45 1010.39 1010.14 1009.79 1009.87 1009.53 1009.35 1008.62 1008.32 1008.32 1009.47 1008.88 1009.13 1009.23 1010.13 1010.84 1010.70 1010.62 1010.65 1011.30 1011.21 1011.63 1011.87 1012.00 1011.96 1011.72 1011.43
1025.97 1025.49 1024.96 1024.38 1023.80 1023.23 1022.65 1022.08 1021.54 1020.95 1020.36 1019.79 1019.22 1018.69 1018.33 1018.05 1017.87 1017.52 1016.76 1016.32 1016.11 1015.40 1012.75 1010.50 1010.27 1010.44 1010.22 1010.27 1010.32 1010.25 1009.84 1009.57 1009.22 1009.01 1008.59 1008.60 1009.39 1009.69 1009.89 1009.93 1009.82 1010.80 1010.88 1010.99 1010.92 1011.97 1012.28 1012.09 1012.16 1012.23 1012.00 1011.74 1011.46 1011.14
1025.67 1025.23 1024.66 1024.09 1023.49 1022.95 1022.36 1021.79 1021.20 1020.59 1019.98 1019.36 1018.64 1018.09 1017.68 1017.43 1017.48 1016.69 1015.85 1016.15 1016.05 1015.76 1013.86 1010.77 1010.46 1010.24 1010.18 1010.20 1010.20 1010.16 1009.99 1009.89 1009.48 1008.85 1009.00 1009.64 1010.35 1010.46 1009.87 1009.75 1011.29 1011.77 1012.20 1012.45 1012.41 1012.67 1012.61 1012.39 1012.07 1011.71 1011.65 1011.52 1011.20 1010.99
1025.38 1024.89 1024.36 1023.81 1023.25 1022.68 1022.09 1021.48 1020.83 1020.14 1019.45 1018.81 1018.17 1017.61 1017.18 1016.93 1016.32 1016.10 1016.35 1016.56 1016.64 1016.14 1014.09 1011.51 1010.05 1010.36 1010.33 1010.13 1010.10 1010.13 1010.39 1010.07 1009.91 1009.61 1009.64 1009.84 1010.65 1011.07 1010.45 1010.34 1011.79 1012.42 1012.74 1012.89 1012.91 1012.89 1012.41 1012.06 1011.87 1011.86 1011.51 1011.21 1011.09 1011.19
1025.06 1024.59 1024.07 1023.52 1022.99 1022.46 1021.86 1021.22 1020.45 1019.66 1018.90 1018.20 1017.68 1017.27 1017.10 1017.06 1016.95 1016.20 1016.42 1016.71 1016.78 1015.85 1014.53 1012.37 1010.55 1010.12 1010.34 1009.52 1009.58 1010.47 1010.03 1010.25 1010.38 1010.04 1010.52 1010.35 1011.24 1011.18 1010.78 1011.84 1012.42 1012.82 1013.04 1012.88 1013.02 1012.94 1012.50 1012.02 1011.74 1011.67 1011.58 1011.09 1011.17 1010.73
1024.70 1024.26 1023.80 1023.30 1022.75 1022.23 1021.67 1020.98 1020.14 1019.20 1018.33 1017.61 1017.16 1017.03 1016.93 1016.53 1015.53 1015.87 1016.80 1016.96 1016.42 1016.13 1014.40 1013.08 1011.25 1010.13 1010.45 1010.05 1010.23 1010.55 1010.60 1010.08 1010.99 1010.28 1010.56 1011.22 1010.93 1011.04 1011.56 1012.33 1012.68 1013.03 1013.19 1013.13 1012.98 1012.60 1012.27 1012.06 1011.95 1011.64 1011.27 1010.84 1010.53 1010.56
1024.34 1023.94 1023.53 1023.07 1022.56 1022.07 1021.49 1020.81 1019.96 1018.82 1017.76 1017.00 1016.64 1016.13 1015.00 1015.62 1016.59 1016.37 1016.37 1015.75 1015.37 1015.30 1014.62 1013.32 1012.66 1011.37 1011.23 1010.31 1010.51 1010.75 1010.75 1010.43 1010.46 1011.11 1011.49 1011.11 1011.02 1012.09 1012.59 1012.91 1013.12 1013.21 1013.29 1013.20 1012.75 1012.35 1012.28 1012.04 1011.80 1011.51 1011.14 1010.88 1010.77 1010.74
1024.00 1023.62 1023.23 1022.82 1022.39 1021.91 1021.35 1020.77 1020.05 1018.79 1017.21 1016.89 1016.68 1016.03 1016.03 1016.04 1015.58 1014.78 1014.34 1014.14 1014.25 1014.34 1014.52 1013.96 1013.29 1012.37 1012.08 1011.31 1011.13 1011.51 1011.08 1011.14 1010.66 1011.26 1011.33 1011.06 1011.16 1012.03 1012.68 1013.04 1013.22 1013.30 1013.18 1012.88 1012.71 1012.57 1012.29 1012.15 1011.89 1011.56 1011.27 1010.98 1010.65 1010.44
1023.62 1023.27 1022.95 1022.60 1022.17 1021.71 1021.22 1020.75 1020.27 1019.07 1018.72 1019.36 1019.35 1018.35 1016.76 1014.99 1014.17 1013.83 1013.52 1013.87 1013.95 1014.23 1014.60 1014.41 1013.89 1013.50 1012.82 1012.68 1011.79 1011.90 1011.30 1011.27 1010.62 1011.36 1011.26 1010.62 1011.57 1012.23 1012.58 1012.96 1013.15 1013.18 1013.05 1012.74 1012.54 1012.60 1012.29 1012.11 1011.98 1011.75 1011.41 1011.03 1010.68 1010.30
1023.25 1022.90 1022.62 1022.33 1021.93 1021.47 1021.04 1020.60 1020.25 1019.88 1019.26 1018.48 1018.41 1016.64 1015.31 1014.36 1013.77 1013.45 1013.62 1013.61 1013.84 1014.04 1014.01 1014.04 1013.77 1013.47 1012.80 1012.48 1012.04 1011.76 1011.39 1011.01 1011.43 1011.12 1010.58 1011.10 1011.88 1012.32 1012.65 1012.88 1012.89 1012.88 1012.80 1012.57 1012.40 1012.49 1012.33 1012.10 1011.98 1011.79 1011.43 1011.08 1010.68 1010.26
1022.89 1022.56 1022.23 1021.94 1021.63 1021.23 1020.77 1020.31 1019.91 1019.23 1018.53 1017.06 1016.44 1015.82 1014.46 1013.47 1013.22 1013.06 1013.49 1013.96 1014.39 1014.16 1013.98 1013.97 1014.03 1013.56 1013.00 1012.44 1011.92 1011.48 1011.58 1011.57 1010.94 1010.40 1010.69 1011.37 1012.14 1012.36 1012.64 1012.74 1012.74 1012.62 1012.55 1012.40 1012.27 1012.45 1012.43 1012.40 1012.05 1011.57 1011.30 1010.92 1010.57 1010.27
1022.52 1022.18 1021.84 1021.44 1021.32 1020.91 1020.41 1019.97 1019.61 1018.65 1017.73 1016.54 1016.03 1014.93 1013.71 1013.47 1013.50 1013.62 1013.55 1013.50 1013.26 1013.17 1012.99 1013.28 1013.09 1012.52 1011.60 1011.50 1011.37 1011.32 1011.21 1010.85 1010.44 1010.74 1011.28 1011.63 1012.33 1012.65 1012.71 1012.65 1012.57 1012.59 1012.50 1012.37 1012.22 1012.16 1012.25 1012.43 1012.04 1011.30 1011.18 1010.75 1010.44 1010.24
1022.22 1021.71 1021.12 1021.27 1020.98 1020.51 1020.01 1019.22 1018.77 1018.26 1017.27 1016.39 1015.72 1014.50 1013.76 1013.28 1012.78 1012.72 1012.86 1012.97 1013.07 1012.53 1012.43 1012.24 1011.87 1011.59 1011.39 1011.41 1011.20 1010.96 1010.83 1010.72 1011.16 1011.26 1011.16 1011.74 1012.26 1012.52 1012.67 1012.66 1012.68 1012.68 1012.55 1012.31 1012.26 1012.30 1012.24 1012.25 1012.19 1011.64 1011.03 1010.65 1010.23 1010.13
1022.15 1021.12 1021.32 1021.11 1020.63 1020.00 1019.70 1019.21 1018.17 1017.41 1016.62 1015.95 1014.76 1014.56 1014.19 1013.73 1013.28 1013.11 1013.04 1012.70 1012.96 1012.43 1012.43 1012.24 1011.84 1011.66 1011.74 1011.26 1011.12 1011.28 1011.19 1011.27 1011.01 1011.05 1011.31 1012.12 1012.43 1012.60 1012.66 1012.60 1012.52 1012.48 1012.41 1012.25 1012.49 1012.44 1012.23 1012.26 1012.01 1011.76 1011.15 1010.67 1010.17 1010.14
1021.45 1020.76 1021.10 1020.96 1020.48 1019.28 1018.85 1018.59 1017.71 1017.00 1016.05 1015.25 1014.69 1014.21 1014.20 1013.99 1013.58 1013.20 1013.26 1013.25 1012.95 1012.71 1012.90 1012.45 1012.09 1011.70 1011.48 1011.01 1010.89 1011.08 1011.08 1011.08 1011.17 1011.38 1011.57 1012.00 1012.40 1012.47 1012.42 1012.37 1012.50 1012.47 1012.30 1012.33 1012.52 1012.53 1012.51 1012.17 1011.82 1011.51 1011.09 1010.62 1009.86 1009.85
1021.32 1021.32 1021.18 1020.99 1020.76 1020.02 1018.67 1018.05 1017.80 1016.46 1015.58 1015.26 1014.91 1014.57 1014.34 1013.90 1013.63 1013.60 1013.44 1013.48 1013.38 1013.31 1013.24 1012.98 1012.53 1011.84 1011.79 1011.56 1011.56 1011.47 1011.45 1011.43 1011.24 1011.29 1011.42 1012.24 1012.43 1012.52 1012.51 1012.48 1012.48 1012.62 1012.60 1012.59 1012.55 1012.40 1012.02 1011.45 1011.19 1011.04 1010.73 1010.10 1009.98 1010.08
1021.56 1021.21 1021.01 1020.86 1020.66 1019.34 1018.42 1017.67 1017.88 1016.69 1015.47 1015.15 1015.08 1014.43 1014.06 1013.74 1013.48 1013.29 1013.03 1013.03 1013.06 1013.05 1013.07 1012.69 1012.48 1012.62 1012.18 1012.22 1012.45 1012.28 1012.04 1011.93 1011.87 1011.46 1011.53 1012.13 1012.50 1012.38 1012.60 1012.88 1013.04 1013.23 1013.07 1012.94 1012.42 1011.92 1011.18 1010.98 1010.95 1010.72 1010.64 1010.57 1010.21 1010.11
1021.01 1020.59 1020.53 1020.40 1019.63 1019.24 1018.52 1017.54 1016.91 1016.50 1015.93 1015.22 1014.68 1014.47 1013.81 1013.46 1013.01 1012.57 1012.36 1012.78 1012.74 1012.72 1012.49 1012.69 1012.78 1013.06 1013.36 1013.25 1013.05 1012.84 1012.46 1012.24 1012.04 1011.69 1011.82 1011.99 1012.38 1012.39 1012.78 1013.17 1013.34 1013.31 1013.13 1012.67 1012.36 1011.64 1011.17 1010.04 1010.19 1010.18 1010.28 1010.46 1010.52 1010.46
1020.68 1020.95 1020.22 1019.92 1019.41 1018.85 1018.30 1017.61 1017.10 1016.68 1016.28 1015.05 1014.65 1014.17 1013.53 1013.30 1012.97 1012.39 1012.72 1012.34 1012.16 1012.92 1012.95 1013.43 1013.65 1013.75 1013.59 1013.71 1013.60 1013.33 1013.06 1012.83 1012.69 1012.57 1012.54 1012.56 1012.58 1012.73 1012.91 1013.27 1013.55 1013.46 1013.22 1012.71 1012.32 1011.75 1011.29 1010.56 1010.10 1010.13 1010.34 1010.57 1010.51 1010.88
1021.18 1020.96 1020.04 1019.66 1019.21 1018.87 1018.06 1017.64 1016.86 1016.14 1015.56 1014.81 1014.47 1013.84 1013.61 1013.29 1012.77 1012.91 1012.22 1012.74 1013.16 1013.41 1013.48 1013.80 1013.98 1014.05 1014.11 1014.19 1014.10 1013.78 1013.32 1013.06 1013.02 1012.98 1012.86 1012.72 1012.79 1013.17 1013.41 1013.53 1013.47 1013.37 1013.00 1012.56 1011.89 1011.52 1011.61 1011.34 1010.83 1010.45 1010.59 1010.45 1010.50 1010.61
1021.52 1020.62 1019.79 1019.37 1018.92 1018.22 1017.72 1016.90 1016.60 1016.51 1015.97 1015.30 1014.40 1013.84 1013.45 1013.20 1012.83 1012.41 1011.96 1012.72 1013.54 1013.71 1013.75 1013.91 1014.21 1014.35 1014.32 1014.18 1014.09 1014.00 1013.59 1013.53 1013.44 1013.44 1013.33 1013.11 1013.34 1013.54 1013.50 1013.22 1013.11 1012.47 1012.14 1012.21 1012.35 1012.24 1011.39 1010.75 1010.90 1010.35 1010.47 1010.51 1010.78 1010.94
1021.17 1020.57 1019.96 1019.29 1018.52 1018.19 1017.14 1016.61 1016.18 1016.29 1015.73 1015.25 1014.77 1014.05 1013.52 1013.19 1012.61 1012.27 1012.22 1013.13 1013.61 1013.76 1013.83 1014.00 1014.08 1014.51 1014.49 1014.35 1014.27 1013.99 1013.81 1013.77 1013.88 1013.87 1013.80 1013.77 1013.71 1013.69 1013.07 1012.29 1012.09 1011.81 1011.13 1010.81 1010.89 1010.64 1010.71 1010.74 1010.71 1010.84 1010.89 1010.96 1011.25 1011.24
1020.67 1019.64 1019.55 1018.32 1017.75 1017.41 1016.92 1016.52 1016.25 1016.07 1015.75 1015.23 1014.54 1014.27 1013.81 1013.32 1012.89 1012.30 1012.76 1013.38 1013.70 1013.76 1013.85 1014.20 1014.37 1014.37 1014.52 1014.58 1014.49 1014.28 1014.03 1013.85 1013.88 1013.73 1013.90 1013.96 1013.81 1013.07 1012.22 1011.26 1011.05 1011.29 1011.06 1010.81 1010.63 1010.54 1010.58 1010.65 1010.76 1011.06 1011.27 1011.64 1011.96 1011.46
1019.74 1018.74 1018.46 1018.18 1017.73 1017.35 1016.89 1016.39 1016.25 1015.98 1015.63 1015.11 1014.79 1014.57 1014.15 1013.30 1012.63 1012.99 1013.29 1013.53 1013.54 1013.76 1013.94 1014.26 1014.66 1014.59 1014.69 1014.88 1014.61 1014.39 1013.90 1013.56 1013.89 1013.91 1013.78 1013.83 1013.47 1012.95 1012.24 1011.62 1011.51 1011.98 1011.71 1011.44 1011.10 1010.98 1010.89 1010.92 1011.04 1011.25 1011.41 1011.74 1011.94 1011.90
1018.92 1018.44 1017.90 1017.49 1017.23 1016.84 1016.40 1016.14 1015.87 1015.45 1015.22 1014.88 1014.95 1014.55 1013.98 1013.21 1013.20 1013.68 1013.44 1013.82 1013.95 1013.82 1013.65 1013.86 1014.34 1014.49 1014.49 1014.91 1014.84 1014.73 1014.53 1014.52 1014.25 1013.83 1013.49 1013.15 1012.56 1012.75 1012.84 1012.32 1012.27 1012.75 1012.51 1012.56 1011.83 1011.46 1011.49 1011.72 1011.89 1011.95 1012.07 1012.14 1012.26 1012.34
1018.50 1017.97 1017.79 1017.15 1016.80 1016.28 1015.76 1015.37 1015.04 1014.74 1014.73 1014.90 1015.08 1015.06 1014.39 1013.53 1013.37 1013.36 1013.62 1013.81 1013.78 1013.72 1013.36 1013.23 1013.97 1014.08 1013.54 1013.36 1014.14 1014.17 1014.23 1014.27 1014.21 1013.31 1012.43 1012.50 1012.48 1012.84 1012.73 1012.08 1012.09 1012.24 1012.49 1012.98 1013.30 1012.99 1012.97 1012.74 1012.73 1012.56 1012.59 1012.50 1012.46 1012.36
1017.69 1017.58 1017.03 1016.51 1016.03 1015.28 1014.91 1014.98 1014.85 1014.80 1014.64 1015.12 1015.43 1015.44 1015.08 1014.33 1013.80 1013.56 1013.40 1013.31 1013.36 1013.16 1013.04 1013.31 1013.90 1013.86 1013.00 1012.67 1012.90 1013.12 1013.47 1013.67 1013.73 1014.00 1013.37 1012.97 1012.61 1012.15 1012.17 1012.33 1012.51 1012.56 1012.60 1012.63 1012.72 1013.13 1013.64 1013.02 1013.14 1012.71 1012.77 1012.66 1012.62 1012.37
1017.14 1017.04 1016.59 1015.92 1015.16 1014.69 1014.40 1014.28 1014.51 1015.22 1015.28 1015.42 1015.45 1015.34 1014.91 1014.48 1013.80 1013.18 1012.93 1012.81 1012.78 1012.68 1012.53 1013.18 1012.92 1012.60 1013.03 1013.01 1012.56 1012.76 1013.85 1014.01 1014.13 1014.11 1013.71 1013.05 1012.61 1012.69 1012.78 1012.91 1012.92 1012.95 1012.99 1012.98 1012.95 1013.08 1013.18 1013.11 1013.07 1013.07 1013.10 1013.06 1012.98 1012.84
1016.34 1016.11 1015.65 1015.06 1014.52 1014.14 1014.40 1014.10 1014.17 1014.61 1014.88 1015.12 1014.93 1014.86 1014.44 1013.83 1013.45 1013.09 1012.91 1012.87 1012.54 1012.32 1012.44 1012.52 1012.25 1012.42 1013.20 1012.95 1013.06 1013.35 1014.33 1013.57 1013.57 1013.58 1013.42 1013.28 1013.31 1013.38 1013.32 1013.27 1013.19 1013.25 1013.30 1013.32 1013.33 1013.35 1013.52 1013.45 1013.31 1013.33 1013.11 1013.04 1013.06 1012.94
1015.53 1015.59 1015.43 1014.72 1013.95 1013.58 1013.63 1013.99 1013.90 1013.96 1014.21 1014.31 1014.27 1014.06 1014.02 1013.70 1013.02 1012.52 1012.87 1013.04 1012.39 1011.90 1011.99 1012.44 1012.90 1013.20 1013.48 1013.45 1013.63 1013.94 1014.14 1014.39 1014.70 1014.61 1014.49 1014.47 1014.46 1014.19 1013.73 1013.65 1013.71 1013.75 1013.71 1013.60 1013.47 1013.46 1013.52 1013.58 1013.41 1013.46 1013.34 1013.23 1013.08 1012.92
Thickness
5600 5599 5600 5600 5601 5602 5602 5603 5605 5608 5610 5612 5614 5617 5620 5623 5627 5633 5648 5646 5655 5671 5688 5689 5693 5695 5699 5703 5706 5706 5705 5712 5714 5708 5715 5716 5713 5714 5710 5711 5707 5708 5706 5710 5702 5692 5687 5702 5699 5684 5688 5691 5688 5682
5600 5600 5600 5600 5601 5602 5603 5603 5604 5606 5608 5610 5612 5614 5616 5619 5622 5627 5645 5642 5643 5653 5677 5679 5686 5690 5692 5695 5698 5700 5702 5703 5711 5710 5706 5708 5701 5701 5708 5698 5699 5692 5702 5700 5694 5692 5692 5689 5683 5686 5685 5676 5673 5669
5599 5599 5600 5600 5601 5602 5603 5604 5605 5606 5607 5609 5611 5612 5614 5616 5619 5621 5634 5637 5645 5655 5675 5677 5684 5688 5691 5692 5696 5691 5696 5699 5699 5702 5705 5702 5690 5702 5694 5696 5692 5688 5691 5688 5679 5686 5684 5681 5681 5680 5675 5669 5667 5665
5598 5598 5599 5600 5601 5602 5603 5604 5604 5606 5607 5608 5610 5612 5613 5615 5617 5619 5628 5633 5638 5648 5660 5674 5681 5681 5685 5689 5688 5690 5691 5693 5696 5697 5695 5695 5691 5690 5689 5691 5690 5687 5681 5676 5675 5681 5673 5675 5671 5668 5664 5663 5661 5661
5596 5596 5598 5600 5601 5602 5602 5604 5605 5606 5608 5609 5611 5613 5614 5615 5616 5618 5623 5627 5629 5635 5650 5667 5674 5676 5681 5681 5680 5682 5685 5686 5688 5686 5688 5685 5686 5683 5682 5682 5680 5678 5672 5668 5665 5662 5655 5655 5658 5657 5654 5653 5654 5653
5594 5594 5596 5598 5599 5600 5601 5603 5605 5607 5608 5610 5613 5615 5616 5616 5615 5620 5630 5623 5623 5626 5637 5658 5667 5666 5671 5673 5673 5673 5676 5677 5681 5683 5681 5679 5676 5674 5671 5670 5664 5664 5661 5658 5653 5654 5651 5652 5653 5655 5650 5648 5649 5647
5591 5592 5594 5595 5597 5598 5600 5602 5605 5608 5610 5612 5613 5615 5616 5616 5617 5624 5622 5616 5613 5616 5630 5647 5656 5659 5663 5665 5666 5666 5667 5669 5671 5672 5670 5671 5667 5664 5664 5659 5653 5651 5649 5648 5649 5645 5643 5646 5642 5644 5646 5646 5644 5639
5588 5589 5591 5593 5594 5596 5598 5600 5604 5607 5610 5613 5614 5614 5612 5610 5609 5615 5610 5605 5603 5610 5617 5629 5644 5650 5656 5657 5655 5656 5658 5659 5657 5661 5658 5659 5653 5655 5651 5646 5645 5642 5640 5641 5639 5639 5639 5642 5642 5639 5639 5640 5632 5634
5585 5586 5588 5589 5591 5593 5595 5598 5602 5606 5610 5613 5613 5611 5610 5612 5618 5611 5599 5596 5597 5600 5608 5614 5627 5633 5646 5646 5646 5645 5646 5645 5645 5649 5648 5644 5644 5639 5642 5637 5635 5632 5629 5628 5631 5633 5634 5631 5629 5631 5632 5634 5633 5630
5582 5583 5585 5586 5588 5590 5592 5594 5598 5604 5609 5611 5613 5618 5621 5612 5600 5598 5599 5601 5599 5596 5599 5605 5611 5617 5625 5634 5631 5632 5634 5635 5632 5633 5634 5635 5635 5631 5629 5628 5626 5625 5624 5623 5621 5622 5622 5621 5622 5623 5624 5626 5626 5623
5579 5581 5581 5583 5584 5586 5587 5589 5591 5598 5606 5608 5608 5612 5604 5600 5604 5606 5604 5603 5599 5591 5589 5593 5598 5606 5613 5614 5615 5615 5616 5617 5617 5620 5619 5622 5622 5622 5622 5619 5619 5618 5618 5620 5620 5619 5620 5619 5617 5617 5618 5620 5623 5623
5577 5577 5578 5579 5580 5582 5583 5583 5584 5590 5590 5584 5581 5581 5591 5602 5605 5601 5600 5597 5592 5582 5579 5577 5586 5591 5598 5599 5604 5604 5607 5611 5610 5619 5612 5617 5614 5616 5615 5612 5611 5611 5611 5613 5615 5612 5614 5614 5613 5612 5613 5615 5617 5620
5574 5575 5575 5575 5577 5578 5578 5579 5579 5579 5580 5583 5586 5594 5596 5599 5585 5587 5581 5587 5584 5584 5586 5583 5584 5588 5596 5599 5599 5600 5596 5601 5609 5604 5610 5609 5608 5609 5607 5605 5605 5607 5607 5608 5608 5608 5607 5608 5608 5607 5607 5610 5612 5614
5571 5572 5573 5573 5573 5573 5574 5575 5576 5578 5581 5590 5590 5573 5593 5592 5593 5592 5586 5582 5578 5580 5581 5581 5575 5583 5589 5590 5594 5591 5595 5597 5595 5601 5600 5604 5599 5600 5600 5600 5599 5599 5600 5602 5603 5602 5601 5599 5600 5605 5606 5608 5608 5607
5568 5569 5570 5571 5569 5570 5571 5573 5573 5575 5581 5585 5584 5571 5591 5593 5589 5584 5584 5585 5589 5591 5591 5585 5587 5592 5598 5595 5598 5595 5590 5589 5598 5592 5594 5598 5593 5591 5591 5593 5594 5593 5594 5596 5599 5599 5597 5593 5596 5603 5603 5605 5606 5605
5565 5568 5568 5566 5566 5567 5569 5572 5572 5573 5577 5580 5579 5584 5589 5588 5589 5589 5586 5582 5586 5590 5592 5593 5590 5588 5587 5589 5586 5586 5586 5585 5583 5588 5596 5593 5589 5587 5586 5586 5587 5588 5590 5593 5594 5594 5593 5591 5589 5596 5601 5603 5604 5603
5559 5566 5562 5562 5563 5565 5565 5568 5572 5573 5575 5575 5582 5581 5580 5580 5579 5581 5581 5583 5583 5585 5575 5580 5576 5578 5585 5581 5579 5582 5576 5579 5588 5590 5591 5584 5580 5580 5580 5582 5584 5586 5587 5589 5587 5587 5589 5588 5590 5589 5593 5598 5602 5600
5558 5560 5557 5556 5558 5563 5565 5566 5569 5570 5571 5577 5575 5577 5575 5575 5574 5577 5576 5576 5577 5576 5573 5573 5582 5577 5574 5575 5578 5583 5584 5586 5586 5584 5583 5580 5577 5577 5580 5580 5581 5582 5584 5584 5582 5581 5579 5582 5583 5584 5591 5595 5600 5599
5552 5551 5551 5550 5549 5553 5561 5563 5561 5566 5571 5570 5570 5571 5569 5571 5573 5572 5572 5570 5571 5572 5569 5567 5566 5570 5570 5577 5575 5577 5577 5577 5578 5579 5580 5573 5572 5572 5574 5576 5577 5575 5576 5577 5578 5577 5580 5587 5588 5588 5591 5596 5595 5592
5546 5546 5546 5545 5544 5553 5555 5559 5554 5558 5564 5565 5563 5565 5566 5566 5569 5569 5571 5570 5569 5567 5563 5565 5567 5565 5570 5571 5569 5569 5570 5571 5571 5572 5572 5569 5568 5571 5570 5568 5566 5563 5566 5568 5574 5576 5588 5588 5587 5589 5589 5588 5590 5589
5543 5544 5543 5541 5547 5547 5549 5553 5555 5555 5556 5557 5562 5559 5563 5566 5568 5570 5571 5570 5567 5564 5566 5569 5567 5564 5560 5561 5563 5562 5564 5565 5564 5570 5569 5569 5566 5568 5565 5562 5559 5560 5562 5566 5569 5577 5583 5593 5590 5592 5590 5586 5585 5584
5539 5536 5539 5539 5541 5543 5543 5547 5547 5548 5546 5556 5556 5558 5560 5558 5559 5568 5567 5567 5569 5562 5564 5558 5556 5556 5558 5554 5554 5556 5557 5558 5559 5560 5556 5561 5562 5560 5560 5558 5555 5557 5559 5563 5568 5573 5577 5584 5591 5590 5586 5583 5582 5577
5530 5530 5536 5536 5536 5529 5533 5540 5541 5546 5546 5552 5554 5554 5554 5556 5563 5564 5566 5561 5558 5559 5559 5555 5554 5554 5553 5550 5549 5551 5554 5555 5555 5556 5559 5560 5558 5554 5551 5549 5552 5555 5560 5566 5573 5575 5572 5573 5579 5583 5581 5580 5578 5575
5522 5529 5532 5531 5531 5530 5536 5539 5541 5535 5539 5541 5548 5549 5552 5554 5562 5562 5564 5560 5554 5555 5554 5554 5551 5548 5549 5550 5548 5546 5550 5550 5552 5552 5552 5555 5549 5546 5549 5553 5556 5564 5568 5566 5563 5564 5574 5579 5574 5580 5578 5576 5571 5567
5517 5520 5521 5502 5530 5527 5535 5537 5539 5533 5536 5539 5539 5545 5549 5555 5554 5558 5559 5554 5551 5550 5551 5552 5552 5546 5544 5543 5544 5546 5547 5547 5547 5547 5548 5547 5548 5550 5557 5565 5567 5569 5575 5578 5578 5579 5576 5576 5575 5572 5570 5567 5562 5560
5505 5526 5511 5531 5532 5531 5532 5531 5532 5531 5533 5535 5542 5544 5548 5548 5548 5553 5552 5549 5548 5549 5549 5547 5545 5547 5543 5542 5542 5541 5542 5545 5546 5547 5546 5547 5551 5558 5565 5573 5574 5572 5576 5578 5578 5577 5575 5574 5571 5566 5562 5556 5548 5554
5509 5527 5527 5526 5527 5529 5529 5533 5532 5530 5528 5531 5535 5534 5536 5539 5547 5548 5550 5550 5549 5549 5549 5546 5541 5543 5541 5537 5536 5537 5545 5549 5548 5550 5552 5553 5557 5562 5566 5569 5570 5568 5571 5572 5574 5572 5570 5566 5562 5558 5554 5550 5546 5544
5524 5525 5524 5528 5527 5530 5528 5526 5525 5525 5527 5535 5533 5531 5534 5541 5540 5539 5545 5546 5546 5548 5550 5550 5545 5543 5543 5537 5537 5537 5541 5545 5548 5553 5557 5560 5566 5564 5563 5568 5568 5559 5563 5561 5565 5564 5560 5554 5549 5547 5543 5541 5539 5538
5522 5526 5524 5525 5526 5529 5530 5530 5531 5534 5534 5531 5526 5525 5532 5543 5545 5545 5543 5543 5546 5547 5550 5553 5546 5546 5554 5556 5547 5549 5549 5547 5548 5556 5564 5560 5562 5562 5564 5569 5567 5564 5560 5553 5542 5546 5546 5546 5544 5542 5540 5539 5539 5539
5525 5527 5528 5530 5530 5533 5536 5534 5532 5533 5533 5527 5523 5521 5524 5533 5539 5544 5545 5547 5546 5549 5552 5552 5546 5548 5556 5560 5560 5560 5558 5556 5555 5552 5557 5556 5560 5567 5566 5563 5559 5558 5556 5555 5552 5547 5538 5544 5541 5545 5542 5541 5538 5538
5529 5529 5530 5534 5537 5539 5541 5542 5538 5527 5526 5523 5523 5522 5525 5529 5538 5546 5549 5551 5553 5554 5557 5550 5555 5560 5556 5556 5563 5562 5551 5553 5552 5553 5557 5561 5564 5562 5560 5557 5555 5553 5552 5551 5550 5548 5547 5546 5544 5542 5539 5536 5535 5533
5533 5533 5537 5538 5541 5547 5542 5543 5541 5536 5534 5529 5532 5532 5536 5541 5541 5546 5551 5552 5554 5556 5557 5557 5561 5560 5555 5559 5559 5557 5544 5557 5557 5557 5558 5559 5558 5556 5554 5553 5552 5551 5549 5548 5547 5546 5544 5542 5541 5539 5538 5536 5533 5532
5536 5533 5532 5540 5547 5550 5552 5547 5548 5548 5545 5543 5542 5546 5542 5545 5549 5555 5554 5553 5559 5563 5562 5560 5557 5556 5554 5555 5554 5552 5551 5549 5544 5542 5545 5545 5544 5545 5550 5550 5548 5546 5546 5546 5546 5546 5543 5540 5539 5537 5535 5534 5532 5531